www.pogodaiklimat.ru

Погода и климат >> Архив погоды >> Россия >> Ставропольский край >> Ставрополь


АРХИВ ПОГОДЫ в Ставрополе

Время (UTC), дата Ветер
(напр.,м/с)
 
Видим.   Явления Облачность Т
(С)
Тd
(С)
f
(%)
Тe
(С)
Тes
(С)
Комфортность P
(гПа)
Po
(гПа)
Тmin
(С)
Tmax
(С)
R
(мм)
R24
(мм)
S
(см)
12 12.08 С 5 20 км 4/4 600 м
[Cu hum]
+26.3 +7.9 31 +26 +30 жарко 1015.5 964.9
15 12.08 СЗ 2 20 км 5/5 600 м
[Cu med, cong]
+25.5 +9.9 37 +26 +27 жарко 1015.6 964.9 +27.6
18 12.08 С 3 20 км 3/0
[Ac trans]
+22.1 +8.9 43 +23 +23 комфорт 1017.3 965.9
21 12.08 В 2 20 км ясно +18.6 +7.5 48 +19 +19 по сезону 1018.4 966.4
00 13.08 В 3 20 км ясно +16.4 +6.4 52 +16 +16 по сезону 1019.0 966.5
03 13.08 ЮВ 2 20 км ясно +15.5 +6.5 55 +16 +16 прохладно 1019.3 966.7 +14.1
06 13.08 В 3 20 км ясно +22.8 +4.7 31 +23 +30 комфорт 1018.4 967.1
09 13.08 В 5 20 км ясно +25.9 +5.3 27 +25 +34 комфорт 1017.2 966.4
12 13.08 СВ 4 20 км ясно +27.5 +2.8 20 +26 +33 жарко 1015.7 965.3
15 13.08 СВ 5 20 км ясно +26.5 -2.3 15 +24 +25 комфорт 1015.6 964.9 +27.9
18 13.08 СВ 4 20 км ясно +20.5 +2.5 30 +21 +21 комфорт 1017.6 965.8
21 13.08 В 4 20 км ясно +17.1 +4.1 42 +17 +17 прохладно 1017.3 965.0
00 14.08 В 4 20 км ясно +14.1 +4.5 52 +13 +13 прохладно 1017.4 964.6
03 14.08 В 3 20 км ясно +15.7 +4.3 47 +15 +16 холодно 1017.3 964.8 +13.9
06 14.08 ЮВ 8-11
{12}
20 км ясно +24.4 +3.7 26 +24 +25 комфорт 1015.5 964.6
09 14.08 В 8-13
{13}
20 км ясно +28.1 +2.8 20 +26 +29 жарко 1013.5 963.2
12 14.08 В 10-14
{16}
20 км ясно +30.2 +1.5 16 +28 +28 жарко 1011.7 961.8
15 14.08 ЮВ 8-12
{16}
20 км ясно +28.3 +0.1 16 +26 +26 жарко 1011.4 961.3 +30.4
18 14.08 В 6
{12}
20 км ясно +22.4 -0.3 22 +22 +22 комфорт 1012.5 961.4
21 14.08 В 5
{10}
20 км ясно +18.5 -0.3 28 +18 +18 по сезону 1012.4 960.5
00 15.08 В 5 20 км ясно +17.2 +2.6 38 +17 +17 по сезону 1011.8 959.8
03 15.08 В 5 20 км ясно +17.2 -1.3 28 +17 +17 прохладно 1011.7 959.7 +16.3
06 15.08 ЮВ 9-12
{13}
20 км ясно +25.5 -3.4 15 +23 +24 комфорт 1010.3 959.7
09 15.08 ЮВ 12-16
{17}
20 км ясно +30.4 +1.2 15 +28 +28 жарко 1008.8 959.1
12 15.08 ЮВ 12-16
{17}
20 км ясно +32.3 +4.3 17 +30 +30 жарко 1007.1 957.8
15 15.08 ЮВ 11-14
{16}
20 км ясно +30.1 +5.0 20 +28 +28 жарко 1006.9 957.3 +32.3
18 15.08 В 7-10
{15}
20 км ясно +23.9 +3.5 26 +23 +23 комфорт 1008.5 957.8
21 15.08 ЮВ 6
{10}
20 км ясно +20.2 +6.0 40 +21 +21 комфорт 1008.9 957.6
00 16.08 ЮВ 5 20 км ясно +16.8 +8.1 56 +16 +16 по сезону 1009.2 957.3
03 16.08 ЮВ 5 20 км ясно +15.6 +10.8 73 +14 +15 холодно 1009.5 957.5 +15.3
06 16.08 ЮВ 5 20 км ясно +23.9 +14.6 56 +27 +31 жарко 1007.5 957.1
09 16.08 В 6
{10}
20 км 4/0
[Ac trans]
+28.7 +15.0 43 +31 +36 жарко 1005.1 955.5
12 16.08 В 5
{10}
20 км 5/0
[Ac trans]
+30.5 +14.5 38 +33 +36 душно 1005.1 955.9
15 16.08 В 4 20 км 6/1 1500 м
[Sc Ac trans]
+28.3 +14.7 43 +31 +31 душно 1004.8 955.2 +31.2
18 16.08 ЮВ 3 20 км 10/4 1000 м
[Cb calv Ac und]
+25.2 +16.0 57 +29 +29 душно 1006.1 955.9
21 16.08 З 2 20 км 10/5 1000 м
[Cb calv Ac und]
+23.6 +16.3 64 +27 +27 жарко 1007.4 956.9
00 17.08 В 1 20 км в посл. час ливневой дождь 10/6 1000 м
[Cb calv Ac und]
+20.1 +16.2 78 +24 +24 комфорт 1005.8 954.9
03 17.08 З 5 20 км 6/3 1000 м
[Sc Ac trans]
+20.1 +16.2 78 +23 +23 комфорт 1005.8 956.3 +19.2 0.0
06 17.08 СЗ 3 20 км 8/3 1000 м
[Sc Ac trans Ci fib]
+24.1 +16.5 63 +28 +31 душно 1007.5 957.1
09 17.08 З 5
{10}
20 км 8/3 1000 м
[Sc Ac trans Ci fib]
+25.5 +16.5 57 +29 +33 душно 1008.3 958.1
12 17.08 З 2 20 км {гроза, ливн. осадки} 9/4 1000 м
[Cb calv Ac trans]
+23.9 +18.0 70 +28 +31 душно 1008.9 958.4
15 17.08 З 1 20 км 8/3 1000 м
[Sc diur, vesp Ac trans Ci fib]
+25.8 +15.9 54 +29 +29 душно 1009.0 958.8 +26.8 4
18 17.08 СЗ 1 20 км 3/0
[Ac trans]
+22.5 +16.7 70 +27 +27 душно 1010.4 959.6
21 17.08 С 2 20 км 3/0
[Ac trans]
+21.3 +16.6 75 +25 +25 комфорт 1009.7 958.7
00 18.08 С 2 20 км 8/3 1000 м
[Sc Ac trans]
+20.9 +16.8 77 +25 +25 комфорт 1009.0 958.1
03 18.08 С 2 20 км 8/4 1000 м
[Sc Ac trans]
+20.3 +17.2 82 +24 +24 комфорт 1009.3 958.2 +19.9
06 18.08 С 3 20 км 10/3 1000 м
[Sc Ac und]
+22.4 +17.3 73 +27 +29 душно 1008.6 957.9
09 18.08 С 4 20 км 8/3 1000 м
[Sc Ac trans Ci fib]
+26.5 +17.0 56 +30 +35 душно 1007.7 957.7
12 18.08 СЗ 3 20 км 10/3 1000 м
[Sc Ac und]
+27.2 +16.8 53 +31 +33 душно 1007.9 958.0
15 18.08 СЗ 5 20 км 3/0
[Ac trans]
+26.8 +15.1 49 +30 +30 душно 1008.4 958.4 +28.2
18 18.08 С 3 20 км 3/0
[Ac trans]
+23.4 +12.6 51 +26 +26 жарко 1010.7 959.9
21 18.08 СЗ 3 20 км 4/0
[Ac trans]
+21.9 +16.2 70 +26 +26 душно 1011.6 960.6
00 19.08 З 5 4000 м дымка 3/0
[Ac trans]
+19.6 +18.4 93 +22 +22 комфорт 1012.2 960.9
03 19.08 З 3 2000 м дымка 5/3 300 м
[St Ac trans Ci fib]
+19.1 +18.2 95 +21 +21 комфорт 1013.6 962.1 +18.8
06 19.08 З 4 10 км 4/3 300 м
[St Ac trans]
+23.8 +18.2 71 +28 +32 душно 1014.2 963.5
09 19.08 СЗ 4 20 км 3/3 600 м
[Cu hum]
+28.5 +15.7 46 +32 +39 душно 1013.6 963.6

 

Местоположение метеостанции Ставрополь (Ставропольский край, Россия): широта 45.12 долгота 42.08 высота над уровнем моря 452 м.

В архиве по умолчанию представлена погода в Ставрополе за последнюю неделю. Архивные данные за месяц целиком и за предыдущие месяцы, начиная с января 2011 года, Вы можете получить, выбрав интересующий диапазон дат из раскрывающегося списка и нажав кнопку "Ввод!".


*Определитесь, кто Вы:
робот инопланетянин человек

Внимание! Время в таблицах - всемирное. Для получения местного времени необходимо прибавить поправку, которая равна 3 ч.

Смотрите также архив погоды в соседних городах и на ближайших метеорологических станциях:

Погода в Изобильном (Ставропольский край, Россия) (41 км)
Погода в Невинномысске (Ставропольский край, Россия) (55 км)
Погода в Светлограде (Ставропольский край, Россия) (66 км)
Погода в Армавире (Краснодарский край, Россия) (77 км)
Погода в Новоалександровске (Ставропольский край, Россия) (81 км)
Погода в Александровском (Ставропольский край, Россия) (85 км)
Погода в Красногвардейском (Ставропольский край, Россия) (92 км)
Погода в Отрадной (Краснодарский край, Россия) (93 км)
Погода в Черкесске (Карачаево-Черкессия, Россия) (100 км)
Погода в Городовиковске (Калмыкия, Россия) (106 км)

Пояснения к столбцам:

Ветер - указаны скорость ветра в м/с - средняя за 10 мин, порывы в срок и между сроками (в фигурных скобках) и направление, откуда дует ветер: С - северный, СВ - северо-восточный, В - восточный, ЮВ - юго-восточный, Ю - южный, ЮЗ - юго-западный, З - западный, СЗ - северо-западный.
Видимость - горизонтальная дальность видимости в метрах или километрах. При видимости от 1 до 10 км при отсутствии осадков обычно наблюдается дымка, при ухудшении видимости до 1 км и менее - туман. В сухую погоду видимость может ухудшаться дымом, пылью или мглою.
Явления - указаны атмосферные явления, наблюдавшиеся в срок или в последний час перед сроком; фигурными скобками обозначены явления, наблюдавшиеся между сроками (за 1-3 часа до срока); квадратными скобками обозначены град или гололедные отложения с указанием их диаметра в мм.
Облачность - указаны через наклонную черту общая и нижняя облачность в баллах и высота нижней границы облаков в метрах; квадратными скобками обозначены формы облаков: Ci - перистые, Cs - перисто-слоистые, Cc - перисто-кучевые, Ac - высококучевые, As - высокослоистые, Sc - слоисто-кучевые, Ns - слоисто-дождевые, Cu - кучевые, Cb - кучево-дождевые. Подробнее классификацию облаков см. в Атласе облаков (PDF).
T - Температура воздуха - температура, измеренная на высоте 2 м над землей.
Td - Температура точки росы - температура, при понижении до которой содержащийся в воздухе водяной пар достигнет насыщения.
f - Относительная влажность воздуха - влажноcть воздуха, измеренная на высоте 2 м над землей.
Te - Эффективная температура - температура, которую ощущает одетый по сезону человек в тени. Характеристика душности погоды. При расчете учитывается влияние влажности воздуха и скорости ветра на теплоощущения человека.
Tes - Эффективная температура на солнце - температура, которую ощущает человек, с поправкой на солнечный нагрев. Характеристика знойности погоды. Зависит от высоты солнца над горизонтом, облачности и скорости ветра. Ночью, в пасмурную погоду, а также при ветре 12 м/с и более поправка равна нулю.
P - Атмосферное давление - приведенное к уровню моря атмосферное давление.
Po - Атмосферное давление - измеренное на уровне метеостанции атмосферное давление.
Tmin - Минимальная температура - минимум температуры воздуха на высоте 2 м над землей.
Tmax - Максимальная температура - максимум температуры воздуха на высоте 2 м над землей.
R - Количество осадков - Количество выпавших осадков за период времени, мм. При наведении курсора мыши на число - период времени, за который выпало указанное количество осадков.
R24 - Количество осадков - Количество выпавших осадков за 24 часа, мм.
S - Снежный покров - Высота снежного покрова, см. При наведении курсора мыши на число - состояние снежного покрова и степень покрытия местности в баллах.